Kapolei, HI

1:39 AM HST on February 07, 2016 (GMT -1000)
Kalaeloa (John Rodgers Field)

Weather History for PHJR - March, 2013

Change the Weather History Date:

Friday, March 22, 2013

  Actual Average (PHNL) Record (PHNL)
Temperature  
Mean Temperature 74 °F 75 °F  
Max Temperature 78 °F 82 °F 85 °F (1983)
Min Temperature 71 °F 68 °F 61 °F (1957)
Degree Days  
Heating Degree Days 0 0  
Month to date heating degree days 0  
Since 1 July heating degree days 0  
Cooling Degree Days 10 10  
Month to date cooling degree days 203  
Year to date cooling degree days 685  
Growing Degree Days 24 (Base 50)    
Moisture  
Dew Point 67 °F    
Average Humidity 77    
Maximum Humidity 87    
Minimum Humidity 68    
Precipitation  
Precipitation 0.00 in 0.07 in 3.53 in (1955)
Month to date precipitation 1.50  
Year to date precipitation 5.80  
Snow  
Snow 0.00 in - - ()
Month to date snowfall  
Since 1 July snowfall  
Snow Depth -    
Sea Level Pressure  
Sea Level Pressure 30.02 in    
Wind  
Wind Speed 8 mph (SSW)    
Max Wind Speed 15 mph    
Max Gust Speed -    
Visibility 10 miles    
Events Rain    
T = Trace of Precipitation, MM = Missing Value Source: NWS Daily Summary

Daily Weather History Graph

Daily Weather History Graph

Search for Another Location

Airport or City:

Trip Planner

Search our weather history database for the weather conditions in past years. The results will help you decide how hot, cold, wet, or windy it might be!

Date:

Astronomy

Mar. 22, 2013 Rise Set
Actual Time 6:34 AM HST 6:44 PM HST
Civil Twilight 6:11 AM HST 7:06 PM HST
Nautical Twilight 5:46 AM HST 7:32 PM HST
Astronomical Twilight 5:20 AM HST 7:58 PM HST
Moon 2:50 PM HST (3/22) 3:11 AM HST (3/22)
Length of Visible Light 12h 54m
Length of Day
12h 10m
Waxing Gibbous, 79% of the Moon is Illuminated
Mar 22
Waxing Gibbous
Mar 26
Full
Apr 2
Last Quarter
Apr 9
New
Apr 18
First Quarter

Hourly Weather History & Observations

Time (HST) Temp. Dew Point Humidity Pressure Visibility Wind Dir Wind Speed Gust Speed Precip Events Conditions
12:53 AM 75.0 °F 68.0 °F 79% 30.06 in 10.0 mi SSW 6.9 mph - N/A   Overcast
1:53 AM 75.9 °F 66.9 °F 74% 30.04 in 10.0 mi SSW 8.1 mph - N/A   Overcast
2:53 AM 75.0 °F 70.0 °F 84% 30.03 in 10.0 mi SSW 12.7 mph - N/A   Overcast
3:53 AM 75.0 °F 66.0 °F 73% 30.01 in 10.0 mi SW 11.5 mph - N/A   Overcast
4:53 AM 75.0 °F 68.0 °F 79% 30.01 in 10.0 mi SSW 8.1 mph - N/A   Mostly Cloudy
5:53 AM 73.9 °F 66.0 °F 76% 30.02 in 10.0 mi SSW 9.2 mph - N/A   Scattered Clouds
6:53 AM 73.9 °F 66.9 °F 79% 30.04 in 10.0 mi SW 8.1 mph - N/A   Overcast
7:53 AM 75.0 °F 66.0 °F 73% 30.05 in 10.0 mi SSW 8.1 mph - N/A   Overcast
8:53 AM 75.0 °F 66.9 °F 76% 30.06 in 10.0 mi South 10.4 mph - N/A   Mostly Cloudy
9:53 AM 78.1 °F 66.9 °F 68% 30.06 in 10.0 mi SSW 10.4 mph - N/A   Mostly Cloudy
10:53 AM 78.1 °F 66.9 °F 68% 30.05 in 10.0 mi SSW 10.4 mph - N/A   Mostly Cloudy
11:53 AM 77.0 °F 68.0 °F 74% 30.04 in 10.0 mi WNW 12.7 mph - N/A   Partly Cloudy
12:53 PM 73.9 °F 66.9 °F 79% 30.02 in 10.0 mi WNW 15.0 mph - N/A   Mostly Cloudy
1:53 PM 75.9 °F 66.9 °F 74% 29.99 in 10.0 mi West 10.4 mph - N/A   Mostly Cloudy
2:53 PM 77.0 °F 66.0 °F 69% 29.97 in 10.0 mi SW 8.1 mph - N/A   Overcast
3:53 PM 73.9 °F 66.0 °F 76% 29.97 in 10.0 mi SSW 6.9 mph - N/A   Overcast
4:53 PM 73.0 °F 64.0 °F 73% 29.98 in 10.0 mi South 8.1 mph - N/A   Overcast
5:53 PM 72.0 °F 66.0 °F 81% 29.98 in 8.0 mi Calm Calm - 0.00 in Rain Light Rain
6:53 PM 71.1 °F 66.9 °F 87% 29.99 in 10.0 mi Calm Calm - 0.00 in   Mostly Cloudy
7:53 PM 73.0 °F 64.9 °F 76% 30.01 in 10.0 mi South 3.5 mph - N/A   Overcast
8:53 PM 72.0 °F 66.0 °F 81% 30.01 in 10.0 mi SE 4.6 mph - N/A   Overcast
9:53 PM 72.0 °F 66.9 °F 84% 30.03 in 10.0 mi Calm Calm - N/A   Overcast
10:53 PM 72.0 °F 66.9 °F 84% 30.03 in 10.0 mi Calm Calm - N/A   Overcast
11:53 PM 71.1 °F 66.0 °F 84% 30.03 in 10.0 mi Calm Calm - N/A   Overcast